850  
ASUS41 KLWX 241311  
RWRLWX  
 
REGIONAL WEATHER ROUNDUP  
NATIONAL WEATHER SERVICE BALTIMORE MD/WASHINGTON DC  
900 AM EDT MON SEP 24 2018  
 
NOTE: "FAIR" INDICATES FEW OR NO CLOUDS BELOW 12,000 FEET  
WITH NO SIGNIFICANT WEATHER AND/OR S TO VISIBILITY
.  
TC=TEMPERATURE CELSIUS  
 
* =NON NWS SITE. STATION DOES NOT REPORT PRECIPITATION (E.G. RAIN,  
SNOW, ETC.), THUNDER, OR FOG.
 
 
DCZ001-MDZ009-015-VAZ040>042-051-053>054-241400-  
WASHINGTON METRO  
 
CITY SKY/WX TMP DP RH WIND PRES REMARKS
 
WASHINGTON NAT LGT RAIN 65 62 90 NE10 30.34R FOG  
DULLES LGT RAIN 63 63 100 E6 30.33R  
ANDREWS AFB LGT RAIN 63 63 98 NE9 30.32R FOG  
FT BELVOIR LGT RAIN 64 64 100 CALM 30.32R  
QUANTICO CLOUDY N/A N/A N/A MISG N/A  
LEESBURG* LGT RAIN 57 57 100 NE5 30.35R  
MANASSAS* CLOUDY 64 62 93 NE5 30.33R  
GAITHERSBURG* CLOUDY 61 61 100 VRB3 30.35R FOG  
 

 
 
MDZ006>007-011-014-241400-  
BALTIMORE METRO  
 
CITY SKY/WX TMP DP RH WIND PRES REMARKS
 
BWI AIRPORT DRZL/FOG 63 62 97 E10 30.35R VSB 1  
MD SCIENCE CTR N/A 64 62 93 MISG 30.36R  
MARTIN STATE CLOUDY 64 64 100 NE5 30.38R  
ANNAPOLIS LGT RAIN 67 63 87 NE7 30.34R FOG  
 

 
 
MDZ012-015-019>023-241400-  
MARYLAND EASTERN SHORE  
 
CITY SKY/WX TMP DP RH WIND PRES REMARKS
 
OCEAN CITY LGT RAIN 67 65 93 E20G28 30.32R FOG  
SALISBURY CLOUDY 66 66 100 E14 30.31R  
EASTON* LGT RAIN 66 64 94 E7 30.36R  
 

 
 
MDZ017>025-241400-  
SOUTHERN MARYLAND  
 
CITY SKY/WX TMP DP RH WIND PRES REMARKS
 
PATUXENT RIVER LGT RAIN 67 64 90 E9 30.30R FOG  
ST INIGOES N/A N/A N/A N/A MISG 30.29R  
LEONARDTOWN* CLOUDY 64 63 94 NE6 30.32R  
 

 
 
MDZ003>005-241400-  
NORTH CENTRAL MARYLAND  
 
CITY SKY/WX TMP DP RH WIND PRES REMARKS
 
FREDERICK* CLOUDY 63 63 100 NE6 30.38R FOG  
HAGERSTOWN APT CLOUDY 64 59 83 NE8 30.35R  
WESTMINSTER* NOT AVBL  
 

 
 
MDZ501>502-241400-  
WESTERN MARYLAND  
 
CITY SKY/WX TMP DP RH WIND PRES REMARKS
 
OAKLAND* NOT AVBL  
CUMBERLAND* NOT AVBL  
 

 
 
VAZ025>031-241400-  
SHENANDOAH VALLEY  
 
CITY SKY/WX TMP DP RH WIND PRES REMARKS
 
WINCHESTER* HVY RAIN 59 57 94 CALM 30.36R  
FRONT ROYAL* CLOUDY N/A N/A N/A NE3 30.33R  
LURAY* CLOUDY 61 59 94 NE7 30.33S  
NEW MARKET* CLOUDY 60 59 96 N6 30.32R  
STAUNTON* DRIZZLE 58 58 99 CALM 30.35S  
WAYNESBORO* CLOUDY 58 58 99 N3 30.34R  
 

 
 
WVZ021-048>050-054>055-241400-  
EASTERN WEST VIRGINIA PANHANDLE  
 
CITY SKY/WX TMP DP RH WIND PRES REMARKS
 
MARTINSBURG CLOUDY 60 60 100 N5 30.34R FOG  
PETERSBURG* DRIZZLE 59 58 98 CALM 30.34R  
 

 
 
VAZ036>039-050-241400-  
CENTRAL FOOTHILLS  
 
CITY SKY/WX TMP DP RH WIND PRES REMARKS
 
CHARLOTTESVILL LGT RAIN 63 60 90 NE8 30.32R FOG  
CULPEPER* RAIN 63 62 95 N3 30.34R  
ORANGE* LGT RAIN 61 61 100 N5 30.32R  
GORDONSVILLE* CLOUDY 62 62 100 NE5 30.31R FOG  
WARRENTON* LGT RAIN 63 61 91 N3 30.33R  
 

 
 
VAZ055>057-241400-  
NORTH AND CENTRAL PIEDMONT  
 
CITY SKY/WX TMP DP RH WIND PRES REMARKS
 
FREDERICKSBRG* DRIZZLE 65 65 100 NE6 30.30S  
STAFFORD* DRIZZLE 65 65 100 NE5 30.36R  
 

 
 
NCZ024-NYZ072-PAZ021-071-VAZ022-071-241400-  
OTHER REGIONAL OBSERVATIONS  
 
CITY SKY/WX TMP DP RH WIND PRES REMARKS
 
NEW YORK CITY FAIR 59 50 72 NE10 30.47R  
PHILADELPHIA LGT RAIN 62 61 96 NE10G21 30.40R FOG  
PITTSBURGH PTSUNNY 59 57 93 E10 30.25R  
ROANOKE LGT RAIN 62 60 93 SE6 30.32R  
RICHMOND DRIZZLE 67 65 93 NE9 30.27R FOG  
RALEIGH FOG 65 65 100 NE7 30.26R VSB 1  
 

 
 
ANZ530>537-241400-  
MARINE OBSERVATIONS  
 
STATION/POSITION TIME TEMP WIND PRES
 
AIR SEA DIR/SP/G  
(UTC) (F) (DEG/KT/KT) (MB)  
THOMAS PT LIGHT 1200 64 72 50/ 14/ 16 1027.2R  
BALT KEY BRIDGE 1248 64 1027.6R  
COVE POINT 1248 66 1027.1R  
LEWISETTA 1242 69 73 1025.2R  
SOLOMONS ISLAND 1248 67 76 1026.1R  
PINEY POINT 1206 70/ 11/ 14 N/A  
 

 
 
 
 
CLICK HERE TO GO TO PREVIOUS BULLETINS.

The Nexlab VA Page
The Nexlab MD Page
The Nexlab WV Page Main Text Page